This demonstration page uses our WeatherBlox Daily Observations layout. Learn more.

40.92945, -100.16068

Hourly Observations for December 30, 2019

Temp ( °F °C ) Dew Point ( °F °C ) Humidity (%) Winds ( mph kmh ) Pressure ( in mb ) Visibility ( mi km ) Precip ( " mm )
12:15 am 00:15 Clear 26 -3.5 20 -6.5 80 80 WNW 26 43 29.89 1012 10 16.0934 0 0
12:35 am 00:35 Clear 26 -3.3 20 -6.5 79 79 NW 28 44 29.9 1012 7 11.26538 0 0
12:55 am 00:55 Clear 26 -3.6 20 -6.6 80 80 NW 28 44 29.9 1013 7 11.26538 0 0
1:15 am 01:15 Clear 25 -4 19 -7 80 80 NW 25 41 29.91 1013 10 16.0934 0 0
1:35 am 01:35 Clear 25 -3.8 19 -7 79 79 NW 26 43 29.9 1013 10 16.0934 0 0
1:55 am 01:55 Partly Cloudy 25 -3.8 19 -7 79 79 NW 23 37 29.91 1013 10 16.0934 0 0
2:15 am 02:15 Partly Cloudy 25 -3.7 19 -7 78 78 NW 28 44 29.92 1013 10 16.0934 0 0
2:35 am 02:35 Clear 25 -3.8 19 -7 79 79 NW 25 41 29.93 1014 7 11.26538 0 0
2:55 am 02:55 Clear 25 -4 19 -7.2 79 79 NW 26 43 29.94 1014 10 16.0934 0 0
3:15 am 03:15 Clear 26 -3.6 19 -7.2 76 76 NW 28 44 29.94 1014 10 16.0934 0 0
3:35 am 03:35 Clear 26 -3.6 19 -7.2 76 76 NW 28 44 29.94 1014 7 11.26538 0 0
3:55 am 03:55 Clear 26 -3.5 19 -7.1 76 76 NW 28 44 29.95 1014 10 16.0934 0 0
4:15 am 04:15 Clear 26 -3.6 19 -7 78 78 NW 28 44 29.95 1014 7 11.26538 0 0
4:35 am 04:35 Clear 26 -3.6 19 -7.2 76 76 NW 26 43 29.95 1014 10 16.0934 0 0
4:55 am 04:55 Partly Cloudy 26 -3.6 19 -7.3 76 76 NW 28 44 29.95 1014 10 16.0934 0 0
5:15 am 05:15 Partly Cloudy 26 -3.6 19 -7.1 77 77 NW 26 43 29.95 1014 10 16.0934 0 0
5:35 am 05:35 Clear 25 -3.7 19 -7.3 76 76 NW 28 44 29.96 1015 7 11.26538 0 0
5:55 am 05:55 Clear 25 -3.9 19 -7.3 78 78 NW 26 43 29.97 1015 7 11.26538 0 0
6:15 am 06:15 Clear 25 -3.7 19 -7.5 75 75 NW 26 43 29.97 1015 10 16.0934 0 0
6:35 am 06:35 Clear 25 -3.8 19 -7.5 76 76 NW 24 39 29.98 1015 10 16.0934 0 0
6:55 am 06:55 Clear 25 -4 18 -7.6 76 76 NW 26 43 30 1016 10 16.0934 0 0
7:15 am 07:15 Clear 25 -4 19 -7.5 77 77 NW 28 44 30.01 1016 7 11.26538 0 0
7:35 am 07:35 Clear 25 -3.9 18 -7.6 76 76 NW 26 43 30.02 1016 10 16.0934 0 0
7:55 am 07:55 Clear 25 -4 18 -7.7 76 76 NW 25 41 30.04 1017 10 16.0934 0 0
8:15 am 08:15 Sunny 25 -3.7 19 -7.5 75 75 NW 29 46 30.03 1017 10 16.0934 0 0
8:35 am 08:35 Hazy 26 -3.6 19 -7.4 75 75 NW 26 43 30.03 1017 4 6.43736 0 0
8:55 am 08:55 Hazy 26 -3.5 19 -7.1 76 76 NW 37 59 30.04 1017 3 4.82802 0 0
9:15 am 09:15 Hazy 26 -3.5 19 -7.1 76 76 NW 30 48 30.05 1018 3 4.82802 0 0
9:35 am 09:35 Hazy 26 -3.5 19 -7.1 76 76 NW 33 54 30.07 1018 3 4.82802 0 0
9:55 am 09:55 Hazy 26 -3.2 20 -6.8 76 76 NNW 29 46 30.07 1018 3 4.82802 0 0
10:15 am 10:15 Hazy 27 -3 20 -6.6 76 76 NW 29 46 30.08 1019 3 4.82802 0 0
10:35 am 10:35 Hazy 27 -2.7 21 -6.2 77 77 NW 30 48 30.07 1018 4 6.43736 0 0
10:55 am 10:55 Hazy 27 -2.7 21 -6.2 77 77 NW 30 48 30.08 1019 2.5 4.02335 0 0
11:15 am 11:15 Hazy 28 -2.5 20 -6.4 75 75 NW 29 46 30.09 1019 3 4.82802 0 0
11:35 am 11:35 Hazy 28 -2.3 21 -6.2 75 75 NW 28 44 30.08 1019 5 8.0467 0 0
11:55 am 11:55 Hazy 28 -2.2 21 -6.1 75 75 NW 30 48 30.08 1019 3 4.82802 0 0
12:15 pm 12:15 Hazy 28 -2 21 -6 74 74 NW 26 43 30.08 1019 5 8.0467 0 0
12:35 pm 12:35 Sunny 29 -1.6 21 -6.1 72 72 NW 22 35 30.08 1019 7 11.26538 0 0
12:55 pm 12:55 Sunny 29 -1.5 21 -5.9 72 72 NW 25 41 30.07 1018 10 16.0934 0 0
1:15 pm 13:15 Hazy 30 -1.3 22 -5.8 72 72 NW 26 43 30.07 1018 5 8.0467 0 0
1:35 pm 13:35 Sunny 30 -1.3 22 -5.7 72 72 NW 28 44 30.07 1018 7 11.26538 0 0
1:55 pm 13:55 Hazy 30 -1.3 22 -5.6 73 73 NW 28 44 30.07 1018 5 8.0467 0 0
2:15 pm 14:15 Sunny 30 -1.2 22 -5.7 72 72 NW 24 39 30.07 1018 7 11.26538 0 0
2:35 pm 14:35 Sunny 30 -1.3 21 -6.1 70 70 NW 26 43 30.08 1019 10 16.0934 0 0
2:55 pm 14:55 Sunny 29 -1.5 20 -6.5 69 69 NW 25 41 30.09 1019 10 16.0934 0 0
3:15 pm 15:15 Sunny 30 -1.2 21 -6.2 69 69 WNW 20 31 30.1 1019 10 16.0934 0 0
3:35 pm 15:35 Sunny 29 -1.4 20 -6.5 69 69 WNW 21 33 30.1 1019 10 16.0934 0 0
3:55 pm 15:55 Sunny 29 -1.5 19 -7.1 66 66 WNW 23 37 30.11 1020 10 16.0934 0 0
4:15 pm 16:15 Sunny 29 -1.5 19 -7.5 64 64 NW 21 33 30.11 1020 10 16.0934 0 0
4:35 pm 16:35 Sunny 29 -1.7 18 -7.8 63 63 NW 17 28 30.12 1020 10 16.0934 0 0
4:55 pm 16:55 Sunny 28 -2.2 18 -8 65 65 NW 17 28 30.13 1020 10 16.0934 0 0
5:15 pm 17:15 Sunny 28 -2.5 17 -8.5 64 64 NW 20 31 30.13 1020 10 16.0934 0 0
5:35 pm 17:35 Clear 26 -3.1 17 -8.6 66 66 NW 16 26 30.14 1021 10 16.0934 0 0
5:55 pm 17:55 Clear 26 -3.6 16 -8.9 67 67 WNW 13 20 30.15 1021 10 16.0934 0 0
6:15 pm 18:15 Clear 24 -4.4 15 -9.2 70 70 WNW 14 22 30.16 1021 10 16.0934 0 0
6:35 pm 18:35 Clear 23 -4.8 15 -9.5 70 70 WNW 14 22 30.17 1022 10 16.0934 0 0
6:55 pm 18:55 Clear 22 -5.5 14 -10 71 71 WNW 14 22 30.18 1022 10 16.0934 0 0
7:15 pm 19:15 Clear 22 -5.5 14 -10 71 71 WNW 16 26 30.18 1022 10 16.0934 0 0
7:35 pm 19:35 Clear 22 -5.8 14 -10.2 71 71 WNW 16 26 30.19 1022 10 16.0934 0 0
7:55 pm 19:55 Clear 23 -4.9 15 -9.6 70 70 WNW 17 28 30.17 1022 10 16.0934 0 0
8:15 pm 20:15 Clear 23 -5.2 15 -9.5 72 72 WNW 14 22 30.17 1022 10 16.0934 0 0
8:35 pm 20:35 Clear 23 -5.1 15 -9.5 72 72 WNW 14 22 30.18 1022 10 16.0934 0 0
8:55 pm 20:55 Clear 25 -3.7 16 -8.8 68 68 WNW 16 26 30.16 1021 10 16.0934 0 0
9:15 pm 21:15 Clear 24 -4.7 16 -9.1 72 72 WNW 12 19 30.17 1022 10 16.0934 0 0
9:35 pm 21:35 Clear 24 -4.7 16 -9 72 72 WNW 13 20 30.17 1022 10 16.0934 0 0
9:55 pm 21:55 Clear 23 -4.9 15 -9.2 72 72 WNW 14 22 30.18 1022 10 16.0934 0 0
10:15 pm 22:15 Clear 21 -6.3 14 -10 75 75 WNW 12 19 30.19 1022 10 16.0934 0 0
10:35 pm 22:35 Clear 20 -6.4 14 -10 76 76 NW 12 19 30.19 1022 10 16.0934 0 0
10:55 pm 22:55 Clear 20 -6.6 14 -10 77 77 NW 15 24 30.19 1022 10 16.0934 0 0
11:15 pm 23:15 Clear 21 -6.2 14 -10 75 75 NW 16 26 30.19 1022 10 16.0934 0 0
11:35 pm 23:35 Clear 22 -5.3 15 -9.7 72 72 WNW 16 26 30.19 1022 10 16.0934 0 0
11:55 pm 23:55 Clear 23 -5.1 15 -9.6 71 71 WNW 18 30 30.18 1022 10 16.0934 0 0

Powered by AerisWeather